星链-5498 (STARLINK-5498 )

导读

STARLINK-5498是美国太空探索技术公司 SpaceX 星链互联网卫星星座的一员,于2023年2月17日发射升空,属于星链星座扩容任务的卫星之一。星链星座旨在为全球提供高速低延迟宽带互联网服务,该卫星入轨后主要参与全球覆盖组网,为偏远地区、海洋等场景提供网络接入支持。

Basic Information
目录编号:
55633
目录名称:
STARLINK-5498
国际标识:
2023-021F
轨道中心:
EARTH
卫星名称:
星链-5498
卫星全名:
星链-5498 (STARLINK-5498 )
卫星状态:
在轨 (已飞行1303 天)
发射日期:
2023-02-17 UTC
国别 :
美国 (US)
星等 :
--
This satellite is enrolled in the Space Conjunction Data Service (SCDS) and the current flight risk assessment level is: No High Risk
Orbit Information
数据来源 国际轨道数据 AOE轨道数据
星历时间 2026-09-12T07:36:29+0800
14小时前
查看轨道信息
2026-09-10T21:00:00+0800
2天前
查看轨道信息
半长轴 6950.188km 6950.149km
偏心率 0.0002773 0.0000723
轨道倾角 69.999° 69.999°
近地点辐角 272.143° 229.329°
升交点赤经 94.727° 98.365°
平近点角 87.941° 274.908°
近地点 570.123km 571.509km
远地点 573.979km 572.515km
周期 96.107分钟 96.106分钟
每日圈数 14.983316 14.983443
Detailed Information
固有亮度:
5
最大亮度:
2.5
卫星平台:
Starlink v1.5
覆盖范围:
全球
运营商:
太空探索技术公司
运营商所在国:
美国
制造商(研发单位):
太空探索技术公司
制造商所在国:
美国
使用方式:
暂无
Satellite Introduction
星链(Starlink)计划是由太空探索技术公司(SpaceX)提出的一个巨型低轨卫星互联网星座项目,计划在2019年至2024年间在太空搭建由约1.2万颗卫星组成的“星链”网络,其中1584颗将部署在地球上空550千米处的近地轨道,并从2020年开始工作。该卫星仍在工作。
2D Orbit Map
3D Orbit Map
Orbit Altitude Analysis Chart
Orbit Inclination Analysis Chart
Orbit Comprehensive Analysis Chart
View Comprehensive Chart
Miss Distance Evolution Trend with All Objects
Collision Probability Evolution Trend with All Objects